1508846400.42,51309,10.19,73612.5,-1.39,-4.13,-2.95,0,*5D
1508846401.64,51310,10.19,73622.3,-1.39,-4.25,-3.03,0,*5E
1508846402.87,51311,10.19,73632.8,-1.39,-4.25,-2.99,0,*5D
1508846404.1,51312,10.19,73620.8,-1.35,-4.21,-2.95,0,*5A
1508846405.32,51313,10.19,73616.5,-1.35,-4.33,-3.11,0,*55
1508846406.55,51314,10.19,73612.5,-1.35,-4.33,-3.07,0,*55
1508846407.77,51315,10.19,73614.0,-1.39,-4.25,-3.03,0,*5B
1508846409.0,51316,10.19,73620.3,-1.35,-4.25,-2.99,0,*56
1508846410.22,51317,10.19,73620.8,-1.31,-4.33,-2.99,0,*54
1508846411.45,51318,10.19,73626.5,-1.35,-4.25,-2.99,0,*58
1508846412.67,51319,10.19,73620.0,-1.35,-4.25,-3.07,0,*5F
1508846413.9,51320,10.19,73624.3,-1.35,-4.33,-3.11,0,*55
1508846415.12,51321,10.19,73632.5,-1.35,-4.09,-2.95,0,*50
1508846416.37,51322,10.19,73636.5,-1.35,-4.01,-2.91,0,*5F
1508846417.6,51323,10.19,73618.8,-1.35,-4.21,-2.95,0,*58
1508846418.81,51324,10.19,73610.5,-1.35,-4.45,-3.19,0,*58
1508846420.02,51325,10.19,73612.0,-1.35,-4.45,-3.19,0,*59
1508846421.23,51326,10.19,73618.3,-1.35,-4.37,-3.19,0,*5F
1508846422.45,51327,10.19,73640.3,-1.35,-4.33,-3.11,0,*52
1508846423.66,51328,10.19,73638.0,-1.35,-4.37,-3.23,0,*58
1508846424.92,51329,10.19,73630.0,-1.35,-4.73,-3.43,0,*5F
1508846426.13,51330,10.19,73622.5,-1.35,-4.45,-3.31,0,*57
1508846427.35,51331,10.19,73634.0,-1.35,-4.33,-3.11,0,*55
1508846428.58,51332,10.19,73610.5,-1.35,-4.21,-3.07,0,*52
1508846429.81,51333,10.19,73618.5,-1.35,-4.33,-2.99,0,*56
1508846431.03,51334,10.19,73620.3,-1.35,-4.33,-3.07,0,*57
1508846432.25,51335,10.19,73634.5,-1.35,-4.25,-3.07,0,*51
1508846433.47,51336,10.19,73628.5,-1.35,-4.33,-3.19,0,*5A
1508846434.69,51337,10.19,73628.5,-1.31,-4.37,-3.11,0,*53
1508846435.9,51338,10.19,73630.3,-1.31,-4.37,-3.19,0,*54
1508846437.12,51339,10.19,73628.5,-1.35,-4.33,-3.07,0,*5A
1508846438.33,51340,10.19,73636.0,-1.31,-4.61,-3.35,0,*56
1508846439.59,51341,10.19,73628.3,-1.31,-5.11,-3.67,0,*56
1508846440.83,51342,10.19,73622.5,-1.35,-4.65,-3.47,0,*51
1508846442.07,51343,10.19,73608.8,-1.35,-4.61,-3.43,0,*50
1508846443.29,51344,10.19,73606.8,-1.39,-4.61,-3.35,0,*5A
1508846444.5,51345,10.19,73608.3,-1.39,-4.49,-3.35,0,*51
1508846445.72,51346,10.19,73620.8,-1.35,-4.61,-3.35,0,*54
1508846446.94,51347,10.19,73634.8,-1.35,-4.57,-3.35,0,*50
1508846448.2,51348,10.19,73612.8,-1.35,-4.85,-3.55,0,*56
1508846449.45,51349,10.19,73606.8,-1.35,-4.85,-3.55,0,*57
1508846450.71,51350,10.19,73636.8,-1.35,-4.85,-3.55,0,*5F
1508846451.95,51351,10.19,73622.3,-1.35,-4.65,-3.43,0,*57
1508846453.18,51352,10.19,73616.0,-1.39,-4.65,-3.47,0,*5C
1508846454.4,51353,10.19,73624.0,-1.39,-4.53,-3.35,0,*5D
1508846455.61,51354,10.19,73620.5,-1.39,-4.53,-3.23,0,*5D
1508846456.82,51355,10.19,73626.0,-1.39,-4.41,-3.15,0,*5A
1508846458.04,51356,10.19,73620.8,-1.35,-4.37,-3.11,0,*50
1508846459.26,51357,10.19,73620.8,-1.35,-4.37,-3.11,0,*51
1508846460.48,51358,10.19,73622.8,-1.35,-4.33,-2.99,0,*5B
1508846461.71,51359,10.19,73626.3,-1.35,-4.25,-2.95,0,*51
1508846462.93,51360,10.19,73624.5,-1.35,-4.21,-2.91,0,*5B
1508846464.16,51361,10.19,73622.8,-1.31,-4.33,-2.99,0,*55
1508846465.38,51362,10.19,73622.3,-1.35,-4.25,-2.99,0,*55
1508846466.61,51363,10.19,73626.5,-1.35,-4.33,-3.07,0,*55
1508846467.83,51364,10.19,73620.0,-1.35,-4.33,-3.11,0,*55
1508846469.06,51365,10.19,73628.8,-1.31,-4.25,-2.99,0,*56
1508846470.29,51366,10.19,73622.8,-1.35,-4.21,-2.95,0,*59
1508846471.51,51367,10.19,73624.5,-1.35,-4.13,-2.83,0,*5E
1508846472.74,51368,10.19,73624.0,-1.31,-4.21,-2.95,0,*53
1508846473.96,51369,10.19,73624.3,-1.35,-4.33,-2.99,0,*59
1508846475.19,51370,10.19,73628.5,-1.35,-4.25,-2.99,0,*56
1508846476.41,51371,10.19,73630.8,-1.31,-4.33,-2.99,0,*54
1508846477.63,51372,10.19,73630.5,-1.35,-4.13,-2.91,0,*59
1508846478.85,51373,10.19,73628.8,-1.31,-4.13,-2.91,0,*5C
1508846480.06,51374,10.19,73634.0,-1.31,-4.13,-2.91,0,*5B
1508846481.31,51375,10.19,73628.0,-1.31,-4.01,-2.83,0,*5A
1508846482.53,51376,10.19,73632.0,-1.31,-4.09,-2.83,0,*51
1508846483.75,51377,10.19,73634.8,-1.31,-3.95,-2.83,0,*52
1508846484.97,51378,10.19,73632.8,-1.29,-4.05,-2.75,0,*53
1508846486.16,51379,10.19,73634.5,-1.29,-4.17,-2.79,0,*5D
1508846487.36,51380,10.19,73628.8,-1.29,-4.05,-2.79,0,*58
1508846488.55,51381,10.19,73628.3,-1.29,-3.95,-2.79,0,*57
1508846489.75,51382,10.19,73632.8,-1.29,-3.95,-2.79,0,*54
1508846491.01,51383,10.19,73632.0,-1.27,-3.91,-2.67,0,*50
1508846492.24,51384,10.19,73634.5,-1.29,-3.95,-2.75,0,*5E
1508846493.46,51385,10.19,73636.0,-1.29,-4.05,-2.75,0,*51
1508846494.68,51386,10.19,73628.5,-1.29,-4.17,-2.75,0,*51
1508846495.87,51387,10.19,73638.5,-1.25,-4.17,-2.83,0,*55
1508846497.09,51388,10.19,73638.0,-1.27,-4.17,-2.79,0,*5D
1508846498.31,51389,10.19,73640.8,-1.27,-4.09,-2.79,0,*53
1508846499.52,51390,10.19,73638.8,-1.27,-4.05,-2.79,0,*57
1508846500.75,51391,10.19,73634.3,-1.29,-4.05,-2.75,0,*54
1508846502.0,51392,10.19,73632.3,-1.23,-4.05,-2.71,0,*59
1508846503.25,51393,10.19,73634.5,-1.25,-4.01,-2.71,0,*5A
1508846504.47,51394,10.19,73636.5,-1.25,-4.13,-2.75,0,*5A
1508846505.69,51395,10.19,73624.5,-1.23,-4.37,-2.99,0,*59
1508846506.9,51396,10.19,73624.3,-1.23,-4.29,-2.91,0,*5D
1508846508.09,51397,10.19,73624.3,-1.25,-4.37,-2.99,0,*5D
1508846509.29,51398,10.19,73628.8,-1.25,-4.29,-2.99,0,*5D
1508846510.48,51399,10.19,73636.8,-1.25,-4.29,-2.91,0,*54
1508846511.67,51400,10.19,73628.5,-1.25,-4.17,-2.87,0,*59
1508846512.85,51401,10.19,73628.0,-1.25,-4.37,-3.03,0,*57
1508846514.04,51402,10.19,73628.3,-1.25,-4.57,-3.23,0,*50
1508846515.23,51403,10.19,73626.8,-1.25,-4.41,-3.11,0,*57
1508846516.42,51404,10.19,73636.3,-1.25,-4.29,-3.03,0,*5D
1508846517.61,51405,10.19,73634.8,-1.25,-4.29,-2.87,0,*51
1508846518.8,51406,10.19,73630.0,-1.25,-4.29,-2.87,0,*52
1508846520.0,51407,10.19,73628.8,-1.25,-4.25,-2.87,0,*5F
1508846521.19,51408,10.19,73618.0,-1.25,-4.25,-2.91,0,*57
1508846522.4,51409,10.19,73616.8,-1.23,-4.37,-3.03,0,*59
1508846523.59,51410,10.19,73630.8,-1.25,-4.41,-3.11,0,*55
1508846524.79,51411,10.19,73626.5,-1.25,-4.29,-2.99,0,*5B
1508846525.97,51412,10.19,73620.8,-1.25,-4.37,-3.03,0,*55
1508846527.17,51413,10.19,73630.3,-1.25,-4.29,-2.99,0,*59
1508846528.36,51414,10.19,73622.5,-1.25,-4.41,-3.11,0,*51
1508846529.54,51415,10.19,73628.8,-1.25,-4.41,-3.15,0,*54
1508846530.76,51416,10.19,73622.3,-1.23,-4.41,-3.11,0,*55
1508846531.95,51417,10.19,73624.5,-1.25,-4.37,-2.99,0,*52
1508846533.14,51418,10.19,73632.3,-1.25,-4.29,-2.99,0,*52
1508846534.33,51419,10.19,73628.3,-1.25,-4.37,-2.91,0,*54
1508846535.52,51420,10.19,73624.8,-1.25,-4.29,-2.99,0,*59
1508846536.71,51421,10.19,73622.5,-1.25,-4.49,-3.11,0,*5F
1508846537.89,51422,10.19,73626.8,-1.25,-4.37,-3.11,0,*55
1508846539.08,51423,10.19,73622.5,-1.25,-4.29,-2.91,0,*52
1508846540.3,51424,10.19,73626.0,-1.23,-4.25,-2.87,0,*58
1508846541.52,51425,10.19,73624.8,-1.23,-4.13,-2.83,0,*58
1508846542.74,51426,10.19,73624.5,-1.25,-4.13,-2.75,0,*54
1508846543.99,51427,10.19,73624.8,-1.23,-4.05,-2.75,0,*54
1508846545.24,51428,10.19,73628.0,-1.23,-4.05,-2.75,0,*5B
1508846546.46,51429,10.19,73622.3,-1.25,-4.05,-2.75,0,*5C
1508846547.68,51430,10.19,73622.3,-1.23,-4.17,-2.83,0,*58
1508846548.87,51431,10.19,73624.0,-1.25,-4.25,-2.87,0,*5A
1508846550.07,51432,10.19,73626.3,-1.25,-4.25,-2.87,0,*59
1508846551.29,51433,10.19,73628.8,-1.23,-4.25,-2.87,0,*5E
1508846552.51,51434,10.19,73624.5,-1.23,-4.29,-2.91,0,*52
1508846553.73,51435,10.19,73624.3,-1.23,-4.29,-2.91,0,*53
1508846554.94,51436,10.19,73622.8,-1.23,-4.29,-2.91,0,*50
1508846556.16,51437,10.19,73630.8,-1.23,-4.37,-3.03,0,*54
1508846557.34,51438,10.19,73628.8,-1.21,-4.45,-3.11,0,*5F
1508846558.56,51439,10.19,73624.5,-1.23,-4.41,-3.03,0,*5B
1508846559.78,51440,10.19,73628.0,-1.23,-4.49,-3.15,0,*5A
1508846561.02,51441,10.19,73632.8,-1.23,-4.69,-3.27,0,*58
1508846562.28,51442,10.19,73626.0,-1.23,-5.07,-3.51,0,*53
1508846563.55,51443,10.19,73630.3,-1.23,-5.15,-3.63,0,*50
1508846564.79,51444,10.19,73626.5,-1.25,-5.15,-3.67,0,*55
1508846566.02,51445,10.19,73630.3,-1.25,-5.07,-3.63,0,*53
1508846567.26,51446,10.19,73636.3,-1.25,-4.89,-3.59,0,*5E
1508846568.49,51447,10.19,73640.0,-1.25,-4.89,-3.51,0,*57
1508846569.75,51448,10.19,73628.8,-1.23,-4.93,-3.51,0,*55
1508846570.94,51449,10.19,73626.5,-1.25,-5.43,-3.79,0,*54
1508846572.19,51450,10.19,73626.0,-1.27,-5.23,-3.79,0,*58
1508846573.41,51451,10.19,73622.0,-1.25,-5.31,-3.75,0,*54
1508846574.64,51452,10.19,73622.3,-1.29,-5.11,-3.67,0,*5A
1508846575.9,51453,10.19,73636.8,-1.27,-4.93,-3.63,0,*5A
1508846577.13,51454,10.19,73638.0,-1.25,-5.03,-3.63,0,*57
1508846578.37,51455,10.19,73632.5,-1.29,-5.19,-3.71,0,*52
1508846579.63,51456,10.19,73632.3,-1.27,-5.11,-3.67,0,*50
1508846580.88,51457,10.19,73628.8,-1.31,-5.11,-3.67,0,*56
1508846582.13,51458,10.19,73636.3,-1.29,-5.07,-3.67,0,*57
1508846583.36,51459,10.19,73638.0,-1.29,-4.81,-3.55,0,*58
1508846584.59,51460,10.19,73636.5,-1.29,-4.73,-3.43,0,*58
1508846585.83,51461,10.19,73628.8,-1.29,-5.07,-3.55,0,*5C
1508846587.05,51462,10.19,73622.0,-1.29,-5.31,-3.83,0,*51
1508846588.27,51463,10.19,73624.8,-1.29,-5.19,-3.79,0,*5F
1508846589.51,51464,10.19,73628.3,-1.29,-5.07,-3.67,0,*58
1508846590.77,51465,10.19,73626.3,-1.31,-5.03,-3.67,0,*54
1508846592.02,51466,10.19,73632.3,-1.31,-4.85,-3.55,0,*59
1508846593.24,51467,10.19,73638.5,-1.31,-4.61,-3.31,0,*50
1508846594.47,51468,10.19,73628.5,-1.31,-4.99,-3.47,0,*59
1508846595.69,51469,10.19,73634.8,-1.31,-4.99,-3.55,0,*5B
1508846596.9,51470,10.19,73630.8,-1.29,-4.99,-3.55,0,*5A
1508846598.14,51471,10.19,73630.0,-1.29,-5.19,-3.71,0,*54
1508846599.35,51472,10.19,73618.8,-1.31,-6.01,-4.45,0,*54
1508846600.57,51473,10.19,73620.8,-1.31,-6.05,-4.61,0,*57
1508846601.79,51474,10.19,73616.3,-1.35,-6.55,-4.99,0,*56
1508846603.04,51475,10.19,73618.8,-1.35,-6.31,-4.89,0,*54
1508846604.29,51476,10.19,73616.3,-1.39,-5.93,-4.49,0,*5C
1508846605.51,51477,10.19,73618.0,-1.39,-5.43,-4.13,0,*5F
1508846606.73,51478,10.19,73620.5,-1.39,-5.39,-3.91,0,*50
1508846607.98,51479,10.19,73626.0,-1.39,-5.31,-3.79,0,*5F
1508846609.25,51480,10.19,73624.8,-1.39,-5.07,-3.63,0,*57
1508846610.52,51481,10.19,73628.5,-1.39,-4.89,-3.59,0,*58
1508846611.78,51482,10.19,73620.8,-1.39,-4.93,-3.51,0,*58
1508846613.04,51483,10.19,73626.5,-1.39,-4.93,-3.59,0,*51
1508846614.25,51484,10.19,73628.0,-1.39,-4.65,-3.23,0,*52
1508846615.49,51485,10.19,73630.3,-1.39,-4.81,-3.39,0,*52
1508846616.76,51486,10.19,73632.8,-1.39,-5.15,-3.63,0,*52
1508846617.99,51487,10.19,73626.8,-1.41,-5.19,-3.67,0,*54
1508846619.26,51488,10.19,73620.8,-1.39,-5.15,-3.63,0,*5C
1508846620.52,51489,10.19,73616.3,-1.39,-4.89,-3.47,0,*5F
1508846621.75,51490,10.19,73616.5,-1.41,-4.93,-3.55,0,*50
1508846622.99,51491,10.19,73618.5,-1.39,-4.89,-3.39,0,*5F
1508846624.2,51492,10.19,73622.5,-1.39,-4.61,-3.23,0,*51
1508846625.42,51493,10.19,73616.0,-1.35,-4.65,-3.31,0,*5B
1508846626.66,51494,10.19,73624.0,-1.35,-4.73,-3.31,0,*5B
1508846627.87,51495,10.19,73628.0,-1.35,-4.57,-3.23,0,*5F
1508846629.09,51496,10.19,73628.0,-1.35,-4.57,-3.23,0,*5C
1508846630.32,51497,10.19,73632.8,-1.35,-5.55,-3.75,0,*5D
1508846631.53,51498,10.19,73634.0,-1.35,-5.43,-3.87,0,*58
1508846632.8,51499,10.19,73632.5,-1.39,-5.15,-3.71,0,*5F
1508846634.0,51500,10.19,73636.0,-1.41,-4.99,-3.63,0,*57
1508846635.26,51501,10.19,73642.0,-1.39,-4.81,-3.47,0,*56
1508846636.47,51502,10.19,73634.3,-1.35,-4.61,-3.23,0,*55
1508846637.73,51503,10.19,73630.8,-1.39,-4.93,-3.51,0,*50
1508846638.99,51504,10.19,73634.0,-1.39,-5.19,-3.63,0,*55
1508846640.26,51505,10.19,73632.5,-1.39,-5.19,-3.63,0,*54
1508846641.52,51506,10.19,73624.0,-1.39,-5.07,-3.63,0,*58
1508846642.79,51507,10.19,73622.5,-1.39,-4.89,-3.59,0,*57
1508846644.05,51508,10.19,73624.8,-1.39,-4.77,-3.47,0,*56
1508846645.26,51509,10.19,73630.5,-1.39,-4.65,-3.35,0,*51
1508846646.48,51510,10.19,73628.5,-1.39,-4.53,-3.23,0,*5B
1508846647.69,51511,10.19,73626.3,-1.35,-4.45,-3.11,0,*50
1508846648.9,51512,10.19,73630.8,-1.35,-4.37,-3.07,0,*51
1508846650.12,51513,10.19,73632.8,-1.35,-4.37,-2.99,0,*56
1508846651.34,51514,10.19,73634.0,-1.35,-4.57,-3.11,0,*56
1508846652.58,51515,10.19,73628.8,-1.35,-4.73,-3.35,0,*57
1508846653.81,51516,10.19,73624.0,-1.31,-4.73,-3.23,0,*57
1508846655.03,51517,10.19,73630.5,-1.31,-4.57,-3.11,0,*51
1508846656.24,51518,10.19,73636.3,-1.31,-4.45,-3.07,0,*5A
1508846657.46,51519,10.19,73640.0,-1.35,-4.61,-3.11,0,*5E
1508846658.72,51520,10.19,73644.0,-1.35,-4.85,-3.43,0,*59
1508846659.98,51521,10.19,73648.3,-1.31,-5.23,-3.71,0,*50
1508846661.21,51522,10.19,73650.0,-1.35,-5.55,-3.95,0,*5C
1508846662.46,51523,10.19,73642.5,-1.35,-5.81,-4.25,0,*58
1508846663.71,51524,10.19,73642.0,-1.35,-5.81,-4.33,0,*58
1508846664.95,51525,10.19,73646.0,-1.35,-5.89,-4.33,0,*51
1508846666.2,51526,10.19,73634.3,-1.39,-6.19,-4.65,0,*57
1508846667.47,51527,10.19,73628.3,-1.39,-6.23,-4.77,0,*5C
1508846668.72,51528,10.19,73622.8,-1.41,-6.63,-5.11,0,*59
1508846669.94,51529,10.19,73614.3,-1.39,-7.11,-5.47,0,*50
1508846671.2,51530,10.19,73608.3,-1.43,-6.93,-5.47,0,*5E
1508846672.43,51531,10.19,73614.5,-1.43,-7.19,-5.51,0,*5B
1508846673.66,51532,10.19,73610.3,-1.45,-7.23,-5.69,0,*5C
1508846674.89,51533,10.19,73612.8,-1.45,-6.93,-5.39,0,*52
1508846676.14,51534,10.25,73614.5,-1.49,-6.51,-5.15,0,*59
1508846677.41,51535,10.19,73612.5,-1.49,-6.63,-5.19,0,*55
1508846678.66,51536,10.19,73610.8,-1.49,-6.59,-5.15,0,*53
1508846679.91,51537,10.19,73608.5,-1.49,-6.39,-5.03,0,*53
1508846681.13,51538,10.19,73604.8,-1.49,-6.09,-4.65,0,*5E
1508846682.38,51539,10.19,73604.5,-1.49,-5.81,-4.41,0,*5A
1508846683.61,51540,10.19,73610.3,-1.49,-5.55,-4.25,0,*5F
1508846684.85,51541,10.19,73608.3,-1.49,-5.43,-4.01,0,*5F
1508846686.09,51542,10.19,73606.0,-1.49,-5.19,-3.83,0,*5E
1508846687.31,51543,10.19,73602.8,-1.51,-5.19,-3.75,0,*5F
1508846688.55,51544,10.19,73600.5,-1.51,-5.07,-3.67,0,*54
1508846689.81,51545,10.19,73608.3,-1.49,-4.93,-3.59,0,*5D
1508846691.06,51546,10.19,73612.0,-1.49,-5.19,-3.75,0,*53
1508846692.31,51547,10.19,73624.0,-1.47,-5.31,-3.75,0,*56
1508846693.53,51548,10.19,73626.3,-1.49,-5.43,-3.83,0,*5B
1508846694.77,51549,10.19,73628.3,-1.49,-5.31,-3.83,0,*5F
1508846696.01,51550,10.19,73618.5,-1.49,-5.27,-3.87,0,*54
1508846697.27,51551,10.19,73612.0,-1.49,-5.27,-3.71,0,*5C
1508846698.52,51552,10.19,73618.3,-1.47,-5.31,-3.83,0,*5B
1508846699.74,51553,10.19,73616.8,-1.47,-5.43,-3.87,0,*5B
1508846700.98,51554,10.19,73616.8,-1.49,-5.73,-4.05,0,*5C
1508846702.22,51555,10.19,73618.8,-1.49,-5.81,-4.17,0,*53
1508846703.47,51556,10.25,73618.3,-1.49,-6.19,-4.41,0,*51
1508846704.72,51557,10.19,73620.5,-1.49,-5.69,-4.05,0,*54
1508846705.96,51558,10.19,73616.0,-1.49,-5.27,-3.87,0,*5C
1508846707.2,51559,10.19,73612.3,-1.49,-5.19,-3.75,0,*5D
1508846708.45,51560,10.19,73610.0,-1.49,-5.19,-3.75,0,*57
1508846709.73,51561,10.19,73614.3,-1.47,-5.07,-3.59,0,*59
1508846710.97,51562,10.19,73620.3,-1.49,-4.89,-3.39,0,*55
1508846712.2,51563,10.19,73622.3,-1.49,-4.81,-3.39,0,*5C
1508846713.46,51564,10.19,73616.5,-1.47,-5.03,-3.39,0,*5E
1508846714.69,51565,10.19,73614.0,-1.49,-4.77,-3.35,0,*5F
1508846715.93,51566,10.19,73622.3,-1.47,-4.93,-3.39,0,*54
1508846717.2,51567,10.25,73622.3,-1.49,-5.15,-3.59,0,*52
1508846718.47,51568,10.19,73618.3,-1.47,-5.07,-3.51,0,*58
1508846719.74,51569,10.25,73628.0,-1.47,-5.03,-3.47,0,*5A
1508846721.0,51570,10.25,73628.8,-1.47,-4.81,-3.47,0,*59
1508846722.25,51571,10.19,73616.5,-1.47,-4.81,-3.39,0,*51
1508846723.46,51572,10.25,73618.8,-1.45,-4.85,-3.31,0,*5C
1508846724.7,51573,10.19,73622.8,-1.43,-4.73,-3.19,0,*58
1508846725.91,51574,10.19,73626.0,-1.45,-4.69,-3.19,0,*52
1508846727.11,51575,10.19,73626.0,-1.45,-4.61,-3.19,0,*5B
1508846728.33,51576,10.19,73630.0,-1.43,-4.65,-3.07,0,*55
1508846729.55,51577,10.19,73624.3,-1.43,-4.65,-3.15,0,*57
1508846730.75,51578,10.19,73618.8,-1.45,-4.61,-3.11,0,*5E
1508846731.99,51579,10.25,73624.3,-1.43,-4.69,-3.07,0,*56
1508846733.22,51580,10.25,73626.8,-1.43,-4.57,-3.03,0,*59
1508846734.4,51581,10.25,73630.5,-1.41,-4.41,-2.91,0,*57
1508846735.59,51582,10.25,73626.0,-1.41,-4.41,-2.91,0,*54
1508846736.81,51583,10.19,73630.0,-1.39,-4.37,-2.87,0,*5C
1508846738.03,51584,10.25,73626.8,-1.39,-4.29,-2.83,0,*50
1508846739.25,51585,10.19,73618.5,-1.39,-4.29,-2.83,0,*51
1508846740.47,51586,10.25,73624.8,-1.31,-4.25,-2.79,0,*53
1508846741.69,51587,10.19,73622.8,-1.39,-4.29,-2.83,0,*53
1508846742.91,51588,10.19,73616.5,-1.35,-4.25,-2.79,0,*59
1508846744.13,51589,10.25,73630.0,-1.39,-4.37,-2.83,0,*52
1508846745.35,51590,10.25,73624.3,-1.35,-4.25,-2.79,0,*50
1508846746.56,51591,10.19,73622.8,-1.31,-4.37,-2.79,0,*56
1508846747.78,51592,10.19,73620.5,-1.35,-4.37,-2.79,0,*51
1508846748.99,51593,10.25,73620.0,-1.35,-4.37,-2.83,0,*55
1508846750.21,51594,10.25,73630.5,-1.35,-4.37,-2.83,0,*52
1508846751.42,51595,10.25,73638.8,-1.35,-4.45,-2.83,0,*56
1508846752.64,51596,10.19,73628.3,-1.35,-4.49,-2.95,0,*5E
1508846753.86,51597,10.25,73632.0,-1.31,-4.57,-2.99,0,*58
1508846755.08,51598,10.25,73634.0,-1.35,-4.49,-2.99,0,*5C
1508846756.3,51599,10.25,73634.8,-1.31,-4.61,-3.07,0,*55
1508846757.52,51600,10.19,73628.5,-1.31,-4.57,-2.99,0,*55
1508846758.74,51601,10.19,73622.0,-1.35,-4.49,-2.95,0,*53
1508846759.93,51602,10.25,73624.3,-1.29,-4.41,-2.87,0,*56
1508846761.16,51603,10.25,73630.3,-1.31,-4.57,-2.99,0,*56
1508846762.38,51604,10.25,73624.5,-1.31,-4.57,-2.95,0,*5D
1508846763.6,51605,10.25,73634.0,-1.31,-4.49,-2.99,0,*5F
1508846764.81,51606,10.25,73622.0,-1.29,-4.73,-3.07,0,*5A
1508846766.03,51607,10.19,73624.8,-1.31,-4.57,-3.07,0,*54
1508846767.22,51608,10.25,73626.3,-1.29,-4.53,-2.91,0,*58
1508846768.43,51609,10.25,73624.0,-1.27,-4.53,-2.91,0,*57
1508846769.66,51610,10.25,73626.3,-1.31,-4.77,-3.11,0,*57
1508846770.88,51611,10.25,73628.0,-1.31,-4.61,-3.11,0,*51
1508846772.1,51612,10.25,73624.3,-1.27,-4.53,-3.03,0,*57
1508846773.31,51613,10.25,73622.0,-1.29,-4.69,-3.03,0,*51
1508846774.53,51614,10.25,73624.5,-1.29,-5.07,-3.39,0,*56
1508846775.74,51615,10.19,73622.3,-1.29,-4.85,-3.15,0,*52
1508846776.94,51616,10.19,73620.3,-1.29,-4.69,-3.15,0,*53
1508846778.15,51617,10.25,73626.3,-1.29,-4.69,-3.07,0,*51
1508846779.39,51618,10.25,73634.0,-1.27,-4.69,-3.07,0,*50
1508846780.58,51619,10.25,73634.8,-1.29,-4.61,-3.03,0,*53
1508846781.8,51620,10.25,73640.0,-1.27,-4.45,-2.87,0,*5C
1508846782.98,51621,10.25,73630.0,-1.29,-4.45,-2.87,0,*53
1508846784.2,51622,10.25,73624.0,-1.27,-4.57,-2.87,0,*5D
1508846785.42,51623,10.25,73624.3,-1.27,-4.61,-3.03,0,*54
1508846786.64,51624,10.25,73630.8,-1.27,-4.53,-2.95,0,*5C
1508846787.86,51625,10.25,73630.8,-1.27,-4.53,-2.91,0,*59
1508846789.07,51626,10.25,73634.8,-1.27,-4.53,-2.87,0,*5D
1508846790.29,51627,10.25,73632.3,-1.27,-4.53,-2.95,0,*5F
1508846791.49,51628,10.19,73638.5,-1.25,-4.57,-2.99,0,*5A
1508846792.68,51629,10.25,73626.0,-1.25,-4.57,-2.99,0,*5B
1508846793.89,51630,10.19,73638.0,-1.25,-4.69,-3.03,0,*5C
1508846795.1,51631,10.25,73638.0,-1.25,-4.89,-3.15,0,*54
1508846796.34,51632,10.19,73624.8,-1.27,-4.81,-3.19,0,*51
1508846797.57,51633,10.25,73628.0,-1.27,-4.69,-3.07,0,*59
1508846798.81,51634,10.25,73638.5,-1.27,-4.73,-3.07,0,*55
1508846800.05,51635,10.25,73630.5,-1.27,-4.81,-3.15,0,*5A
1508846801.29,51636,10.25,73642.3,-1.27,-4.93,-3.27,0,*5B
1508846802.5,51637,10.19,73642.0,-1.25,-4.89,-3.23,0,*57
1508846803.7,51638,10.19,73642.0,-1.25,-4.77,-3.15,0,*5C
1508846804.94,51639,10.25,73644.3,-1.27,-4.73,-3.15,0,*5B
1508846806.13,51640,10.25,73638.0,-1.25,-4.53,-2.99,0,*50
1508846807.31,51641,10.25,73638.0,-1.25,-4.49,-2.91,0,*52
1508846808.53,51642,10.25,73632.3,-1.23,-4.41,-2.87,0,*58
1508846809.71,51643,10.25,73628.3,-1.25,-4.49,-2.83,0,*53
1508846810.9,51644,10.25,73624.5,-1.25,-4.65,-3.11,0,*50
1508846812.14,51645,10.25,73628.3,-1.23,-4.69,-3.03,0,*58
1508846813.33,51646,10.25,73628.5,-1.25,-4.53,-2.99,0,*56
1508846814.55,51647,10.25,73628.5,-1.23,-4.49,-2.87,0,*55
1508846815.76,51648,10.25,73628.8,-1.23,-4.57,-2.91,0,*52
1508846816.98,51649,10.25,73624.8,-1.23,-4.49,-2.87,0,*5B
1508846818.2,51650,10.25,73622.0,-1.23,-4.41,-2.83,0,*5F
1508846819.42,51651,10.19,73620.3,-1.23,-4.49,-2.99,0,*5D
1508846820.66,51652,10.19,73632.5,-1.23,-4.81,-3.11,0,*5B
1508846821.89,51653,10.25,73636.3,-1.23,-4.81,-3.11,0,*5A
1508846823.1,51654,10.25,73646.5,-1.25,-4.69,-3.11,0,*5D
1508846824.36,51655,10.25,73634.8,-1.23,-5.19,-3.47,0,*5F
1508846825.63,51656,10.25,73638.0,-1.23,-5.27,-3.51,0,*56
1508846826.86,51657,10.25,73636.0,-1.23,-5.43,-3.63,0,*54
1508846828.13,51658,10.25,73632.3,-1.23,-5.27,-3.59,0,*50
1508846829.4,51659,10.25,73632.0,-1.23,-5.03,-3.47,0,*58
1508846830.64,51660,10.25,73634.5,-1.23,-5.03,-3.35,0,*57
1508846831.88,51661,10.25,73638.5,-1.23,-4.93,-3.35,0,*5E
1508846833.13,51662,10.25,73636.5,-1.23,-4.89,-3.27,0,*55
1508846834.34,51663,10.25,73640.5,-1.25,-4.89,-3.27,0,*52
1508846835.58,51664,10.25,73642.5,-1.23,-4.89,-3.15,0,*52
1508846836.8,51665,10.25,73644.3,-1.23,-4.65,-3.03,0,*56
1508846838.02,51666,10.25,73640.5,-1.23,-4.53,-2.87,0,*5D
1508846839.24,51667,10.25,73640.0,-1.23,-4.53,-2.87,0,*5C
1508846840.43,51668,10.25,73638.0,-1.25,-4.65,-2.99,0,*5F
1508846841.65,51669,10.25,73638.0,-1.23,-4.53,-2.99,0,*5D
1508846842.87,51670,10.25,73644.8,-1.23,-4.57,-2.91,0,*59
1508846844.11,51671,10.25,73642.0,-1.23,-4.69,-2.99,0,*5D
1508846845.29,51672,10.25,73646.3,-1.21,-4.99,-3.23,0,*53
1508846846.53,51673,10.25,73644.8,-1.23,-5.47,-3.67,0,*52
1508846847.75,51674,10.25,73640.5,-1.23,-6.09,-4.25,0,*5D
1508846849.02,51675,10.25,73628.0,-1.23,-6.63,-4.69,0,*58
1508846850.24,51676,10.25,73626.8,-1.25,-7.31,-5.55,0,*55
1508846851.48,51677,10.25,73618.3,-1.27,-7.91,-6.09,0,*56
1508846852.72,51678,10.25,73598.0,-1.27,-7.49,-5.73,0,*52
1508846853.97,51679,10.19,73598.0,-1.29,-7.61,-5.77,0,*53
1508846855.18,51680,10.25,73606.5,-1.31,-7.87,-6.05,0,*52
1508846856.45,51681,10.25,73612.8,-1.35,-7.27,-5.65,0,*58
1508846857.7,51682,10.19,73616.3,-1.35,-6.69,-5.11,0,*53
1508846858.92,51683,10.25,73630.8,-1.35,-6.31,-4.61,0,*59
1508846860.15,51684,10.25,73624.5,-1.35,-6.43,-4.65,0,*5F
1508846861.4,51685,10.25,73622.5,-1.39,-6.59,-4.81,0,*53
1508846862.64,51686,10.25,73614.0,-1.39,-6.39,-4.77,0,*5F
1508846863.86,51687,10.25,73612.0,-1.41,-6.27,-4.53,0,*58
1508846865.09,51688,10.25,73612.0,-1.39,-5.97,-4.37,0,*52
1508846866.3,51689,10.25,73620.0,-1.41,-5.77,-4.17,0,*50
1508846867.52,51690,10.25,73618.8,-1.41,-5.61,-3.95,0,*52
1508846868.74,51691,10.25,73618.0,-1.41,-5.61,-3.95,0,*53
1508846869.96,51692,10.25,73618.8,-1.41,-5.81,-4.05,0,*50
1508846871.18,51693,10.25,73636.3,-1.41,-5.77,-4.05,0,*58
1508846872.4,51694,10.25,73634.0,-1.41,-5.61,-3.91,0,*52
1508846873.61,51695,10.25,73628.0,-1.41,-5.73,-3.95,0,*54
1508846874.85,51696,10.25,73634.0,-1.39,-5.61,-3.83,0,*5C
1508846876.04,51697,10.25,73630.8,-1.41,-5.43,-3.75,0,*5B
1508846877.31,51698,10.25,73652.3,-1.39,-5.27,-3.71,0,*5D
1508846878.55,51699,10.25,73656.0,-1.41,-5.23,-3.63,0,*54
1508846879.82,51700,10.25,73652.5,-1.39,-5.85,-4.01,0,*55
1508846881.04,51701,10.25,73652.8,-1.41,-5.77,-4.05,0,*52
1508846882.23,51702,10.25,73652.8,-1.41,-6.01,-4.17,0,*50
1508846883.48,51703,10.25,73648.3,-1.41,-6.63,-4.69,0,*5C
1508846884.7,51704,10.25,73644.5,-1.41,-6.51,-4.69,0,*5A
1508846885.94,51705,10.25,73642.8,-1.41,-6.63,-4.85,0,*58
1508846887.16,51706,10.25,73634.8,-1.41,-6.69,-4.85,0,*51
1508846888.37,51707,10.25,73626.0,-1.45,-6.31,-4.49,0,*59
1508846889.59,51708,10.25,73618.0,-1.43,-6.01,-4.33,0,*5E
1508846890.85,51709,10.25,73604.0,-1.43,-5.85,-4.21,0,*53
1508846892.08,51710,10.25,73604.5,-1.45,-5.89,-4.13,0,*50
1508846893.3,51711,10.25,73608.3,-1.43,-6.09,-4.17,0,*58
1508846894.55,51712,10.25,73616.3,-1.43,-5.77,-4.05,0,*52
1508846895.76,51713,10.25,73622.5,-1.45,-5.55,-3.87,0,*58
1508846896.98,51714,10.25,73626.5,-1.43,-5.35,-3.75,0,*52
1508846898.25,51715,10.25,73630.8,-1.43,-5.23,-3.67,0,*57
1508846899.5,51716,10.25,73630.0,-1.45,-5.23,-3.47,0,*50
1508846900.76,51717,10.25,73624.8,-1.43,-5.19,-3.55,0,*5D
1508846901.99,51718,10.25,73620.8,-1.45,-5.55,-3.71,0,*5A
1508846903.23,51719,10.25,73626.3,-1.43,-5.47,-3.67,0,*59
1508846904.44,51720,10.25,73624.5,-1.41,-5.35,-3.67,0,*54
1508846905.68,51721,10.25,73626.0,-1.43,-5.43,-3.67,0,*56
1508846906.95,51722,10.25,73624.0,-1.43,-5.31,-3.67,0,*50